Regional Weather Roundup
Issued by NWS

Home | Current Version | Previous Version | Text Only | Print | Product List | Glossary Off
Versions: 1 2 3 4 5 6 7 8 9 10 11 12 13 14 15 16 17 18 19 20 21 22 23 24 25 26 27 28 29 30 31 32 33 34 35 36 37 38 39 40 41 42 43 44 45 46 47 48 49 50

000
ASUS43 KFSD 250310
RWRSD

WEATHER ROUNDUP FOR SOUTH DAKOTA
NATIONAL WEATHER SERVICE SIOUX FALLS SD
1000 PM CDT SUN MAY 24 2015

NOTE: "FAIR" INDICATES FEW OR NO CLOUDS BELOW 12,000 FEET WITH NO
SIGNIFICANT WEATHER AND/OR OBSTRUCTIONS TO VISIBILITY.


SDZ001>005-009-010-012>017-250400-
NORTHWEST AND NORTH CENTRAL SOUTH DAKOTA

CITY           SKY/WX    TMP DP  RH WIND       PRES   REMARKS
BUFFALO          N/A     54  51  90 N12       29.84F
FAITH            N/A     54  52  93 NE14      29.87F
MOBRIDGE       LGT RAIN  59  58  96 NE7       29.84R
$$

SDZ012>016-024>037-041>051-057-063-072>074-250400-
SOUTHWEST AND SOUTH CENTRAL SOUTH DAKOTA

CITY           SKY/WX    TMP DP  RH WIND       PRES   REMARKS
RAPID CTY ARPT CLOUDY    54  53  97 N10       29.87S
PIERRE         CLOUDY    58  56  93 NE6       29.81S
CUSTER         CLOUDY    47  45  93 NE12      29.88F
ELLSWORTH AFB  CLOUDY    54  54 100 N7        29.87
PHILIP         CLOUDY    57  55  93 NE6       29.83R
PINE RIDGE     CLOUDY    58  53  84 NE10      29.82R
SPEARFISH      CLOUDY    50  50 100 NE7       29.91S FOG
WINNER         LGT RAIN  60  58  92 NE6       29.81R FOG
$$

SDZ004>011-016>023-039-040-250400-
NORTHEAST SOUTH DAKOTA

CITY           SKY/WX    TMP DP  RH WIND       PRES   REMARKS
ABERDEEN       LGT RAIN  58  56  93 NE9       29.84S
WATERTOWN      LGT RAIN  57  55  93 E8        29.82F
BROOKINGS      CLOUDY    57  55  94 NE8       29.79F
SISSETON         N/A     58  58 100 E12       29.84F
$$

SDZ017-020-022-023-036>040-048>070-250400-
SOUTHEAST SOUTH DAKOTA

CITY           SKY/WX    TMP DP  RH WIND       PRES   REMARKS
SIOUX FALLS    CLOUDY    60  58  92 NE6       29.77S
HURON          CLOUDY    59  57  93 NE6       29.80S
CHAMBERLAIN    CLOUDY    58  58  99 NE5       29.80R
MITCHELL       CLOUDY    61  59  93 NE6       29.79S
YANKTON        CLOUDY    61  57  88 CALM      29.76S
$$

ABBREVIATIONS USED IN REMARKS
   TC - TEMPERATURE IN CELSIUS
  WCI - WIND CHILL INDEX
   HX - HEAT INDEX
  VSB - VISIBILITY



USA.gov is the U.S. government's official web portal to all federal, state and local government web resources and services.